Simultaneous Nadir Overpasses (SNOs) Predictions

Prediction of SNOs between GOES-16 and AQUA Satellite Orbit:

Table of predicted SNOs for the next 14.0 days since TLE Epoch: 4/25/2020
Index Date Time (GOES-16) GOES-16 Lat,Lon AQUA Lat,Lon Distance(km) Time Diff (sec)
1 04/25/2020 06:44:40 -0.02, -75.16 0.33, -76.85 191.56 80
2 04/27/2020 06:29:48 -0.02, -75.17 -0.30, -73.89 145.35 80
3 04/27/2020 18:51:12 0.02, -75.18 -0.83, -79.08 444.13 80
4 04/29/2020 06:17:36 -0.02, -75.18 -0.93, -70.93 482.53 80
5 04/29/2020 18:39:00 0.01, -75.18 -0.20, -76.12 106.86 80
6 05/01/2020 18:29:28 0.01, -75.20 0.43, -73.16 230.92 80
7 05/02/2020 06:50:43 -0.01, -75.19 0.66, -78.32 355.28 80
8 05/04/2020 06:38:31 -0.01, -75.21 0.02, -75.36 16.80 80
9 05/06/2020 06:23:39 -0.01, -75.24 -0.62, -72.40 322.21 80
10 05/06/2020 18:45:03 0.01, -75.25 -0.51, -77.59 267.02 80
11 05/08/2020 18:35:31 0.01, -75.27 0.14, -74.64 72.58 80




NCC Satellite Simultaneous Nadir Overpasses (SNOs) Prediction Service
